Preview of NWS' New Version of Forecast
This preview is not operational and should not be used for support decisions.

Regional Weather Roundup (RWR)

Issued by National Weather Service (NWS)

                            
000
ASUS43 KTOP 251608
RWRKS 

WEATHER ROUNDUP FOR KANSAS
NATIONAL WEATHER SERVICE GOODLAND KS
1100 AM CDT TUE JUN 25 2019

NOTE:  "FAIR" INDICATES FEW OR NO CLOUDS BELOW 12,000 FEET WITH NO
SIGNIFICANT WEATHER AND/OR OBSTRUCTIONS TO VISIBILITY.

KSZ001>006-013>018-027>032-041>047-251700-
NORTHWEST KANSAS
  
CITY           SKY/WX    TMP DP  RH WIND       PRES   REMARKS
GOODLAND       SUNNY     80  53  39 NW10      29.98R                  
HAYS           SUNNY     75  60  59 SW21      29.93F                  
HILL CITY      SUNNY     83  65  54 SW16G26   29.92F                  
RUSSELL        SUNNY     75  63  66 W6        29.93R                  
$$

KSZ061>065-074>080-084>089-251700-
SOUTHWEST KANSAS
  
CITY           SKY/WX    TMP DP  RH WIND       PRES   REMARKS
DODGE CITY     SUNNY     82  63  52 S18       29.96F                  
ELKHART        SUNNY     82  64  54 SW8       29.99R                  
GARDEN CITY    MOSUNNY   81  66  60 SW16G29   29.96S                  
GREAT BEND     SUNNY     71  66  84 SW8       29.98S                  
LIBERAL        SUNNY     79  67  66 SE16G24   29.99R                  
PRATT          SUNNY     84  68  59 S9        29.98S                  
$$

KSZ066>073-081>083-090>101-251700-
SOUTHEAST KANSAS
  
CITY           SKY/WX    TMP DP  RH WIND       PRES   REMARKS
CHANUTE        SUNNY     82  71  69 SW9       30.00S                  
COFFEYVILLE    SUNNY     78  69  73 S9        29.99R                  
HUTCHINSON     SUNNY     84  67  56 SW14      29.96F                  
MEDICINE LODGE   N/A     80  70  71 S9        29.97R                  
NEWTON         SUNNY     81  67  62 SW13      29.99S                  
PARSONS        SUNNY     81  71  71 SW10      30.01S                  
WICHITA INTL   MOSUNNY   83  68  60 S12       29.97S                  
WICHITA JABRA  SUNNY     82  67  60 SW12      29.98S                  
WICHITA MCCONL SUNNY     81  69  66 S12       29.98S                  
WINFIELD       SUNNY     82  67  60 S9        29.99S                  
$$

KSZ007>012-019>026-033>040-048>060-102>105-251700-
NORTHEAST KANSAS
  
CITY           SKY/WX    TMP DP  RH WIND       PRES   REMARKS
CONCORDIA      SUNNY     82  63  52 SW12      29.92S                  
EMPORIA        SUNNY     81  68  64 SW13G20   29.98S                  
LAWRENCE       SUNNY     79  65  62 SW8       29.97F                  
MANHATTAN      SUNNY     81  64  56 SW10      29.94F                  
MARYSVILLE     SUNNY     79  64  61 S10       29.93S                  
OLATHE IND     SUNNY     79  66  64 S10       29.99F                  
OLATHE EXE     SUNNY     78  67  68 W8        29.99S                  
SALINA         SUNNY     82  67  60 S8        29.94F                  
TOPEKA BILLARD SUNNY     81  64  56 SW8       29.96S                  
TOPEKA FORBES  SUNNY     80  65  59 SW7       29.97S                  
$$